Weather History for Keokuk, IA

Change the Weather History Date:

Wednesday, November 2, 2011

  Actual Average Record
Temperature  
Mean Temperature 53 °F -  
Max Temperature 62 °F 58 °F 79 °F (1938)
Min Temperature 42 °F 41 °F 20 °F (1951)
Degree Days  
Heating Degree Days 12    
Growing Degree Days 3 (Base 50)    
Moisture  
Dew Point 38 °F    
Average Humidity 53    
Maximum Humidity 82    
Minimum Humidity 34    
Precipitation  
Precipitation 0.01 in - - ()
Sea Level Pressure  
Sea Level Pressure 29.99 in    
Wind  
Wind Speed 12 mph (SW)    
Max Wind Speed 16 mph    
Max Gust Speed 24 mph    
Visibility 10 miles    
Events Rain    
Averages and records for this station are not official NWS values.
T = Trace of Precipitation, MM = Missing Value Source: NWS Daily Summary

Daily Weather History Graph

Daily Weather History Graph

Search for Another Location

Airport:

Trip Planner

Search our weather history database for the weather conditions in past years. The results will help you decide how hot, cold, wet, or windy it might be!

Date:

Astronomy

Nov. 02, 2011 Rise Set
Actual Time 7:36 AM CDT 6:01 PM CDT
Civil Twilight 7:08 AM CDT 6:29 PM CDT
Nautical Twilight 6:35 AM CDT 7:02 PM CDT
Astronomical Twilight 6:04 AM CDT 7:33 PM CDT
Moon 1:56 PM CDT (11/2) No Moon Set
Length of Visible Light 11h 21m
Length of Day
10h 25m
Waxing Crescent, 50% of the Moon is Illuminated
Nov 2
Waxing Crescent
Nov 10
Full
Nov 18
Last Quarter
Nov 25
New
Dec 2
First Quarter

Hourly Weather History & Observations

Time (CDT) Temp. Windchill Dew Point Humidity Pressure Visibility Wind Dir Wind Speed Gust Speed Precip Events Conditions
12:15 AM 60.8 °F - 32.0 °F 34% 29.99 in 10.0 mi South 15.0 mph 21.9 mph N/A   Clear
12:35 AM 60.8 °F - 32.0 °F 34% 29.99 in 10.0 mi South 15.0 mph 20.7 mph N/A   Clear
12:55 AM 60.8 °F - 32.0 °F 34% 29.99 in 10.0 mi South 12.7 mph 19.6 mph N/A   Clear
1:15 AM 60.8 °F - 32.0 °F 34% 30.00 in 10.0 mi South 12.7 mph 20.7 mph N/A   Clear
1:35 AM 60.8 °F - 32.0 °F 34% 30.00 in 10.0 mi South 12.7 mph 20.7 mph N/A   Clear
1:55 AM 60.8 °F - 32.0 °F 34% 30.00 in 10.0 mi South 15.0 mph 19.6 mph N/A   Clear
2:15 AM 60.8 °F - 32.0 °F 34% 30.00 in 10.0 mi South 13.8 mph 18.4 mph N/A   Clear
2:35 AM 60.8 °F - 32.0 °F 34% 30.00 in 10.0 mi SSW 12.7 mph 21.9 mph N/A   Mostly Cloudy
2:55 AM 60.8 °F - 32.0 °F 34% 30.00 in 10.0 mi South 12.7 mph 23.0 mph N/A   Overcast
3:15 AM 59.0 °F - 32.0 °F 36% 30.00 in 10.0 mi South 15.0 mph 21.9 mph N/A   Overcast
3:35 AM 59.0 °F - 33.8 °F 39% 30.00 in 10.0 mi South 11.5 mph 20.7 mph N/A   Overcast
3:55 AM 57.2 °F - 33.8 °F 41% 30.00 in 10.0 mi SSW 13.8 mph 18.4 mph N/A   Overcast
4:55 AM 57.2 °F - 33.8 °F 41% 30.01 in 10.0 mi South 12.7 mph 18.4 mph N/A   Clear
5:55 AM 57.2 °F - 35.6 °F 44% 30.01 in 10.0 mi SSW 11.5 mph 19.6 mph N/A   Clear
6:15 AM 57.2 °F - 35.6 °F 44% 30.01 in 10.0 mi South 12.7 mph 18.4 mph N/A   Scattered Clouds
6:35 AM 57.2 °F - 35.6 °F 44% 30.01 in 10.0 mi SSW 11.5 mph 19.6 mph N/A   Scattered Clouds
6:55 AM 57.2 °F - 35.6 °F 44% 30.01 in 10.0 mi SSW 13.8 mph 21.9 mph N/A   Scattered Clouds
7:35 AM 55.4 °F - 35.6 °F 47% 30.01 in 10.0 mi SSW 11.5 mph - N/A   Mostly Cloudy
7:55 AM 55.4 °F - 35.6 °F 47% 30.01 in 10.0 mi SSW 10.4 mph - N/A   Scattered Clouds
8:15 AM 55.4 °F - 35.6 °F 47% 30.02 in 10.0 mi South 11.5 mph - N/A   Clear
8:35 AM 55.4 °F - 37.4 °F 51% 30.03 in 10.0 mi SSW 12.7 mph 18.4 mph N/A   Mostly Cloudy
8:55 AM 55.4 °F - 37.4 °F 51% 30.04 in 10.0 mi SSW 12.7 mph 20.7 mph N/A   Overcast
9:15 AM 55.4 °F - 37.4 °F 51% 30.04 in 10.0 mi SSW 12.7 mph 18.4 mph N/A   Overcast
9:35 AM 57.2 °F - 37.4 °F 48% 30.04 in 10.0 mi SSW 11.5 mph - N/A   Overcast
9:55 AM 57.2 °F - 37.4 °F 48% 30.03 in 10.0 mi SSW 10.4 mph - N/A   Overcast
10:15 AM 57.2 °F - 37.4 °F 48% 30.02 in 10.0 mi South 9.2 mph - N/A   Mostly Cloudy
10:35 AM 57.2 °F - 37.4 °F 48% 30.01 in 10.0 mi South 12.7 mph - N/A   Scattered Clouds
10:55 AM 59.0 °F - 37.4 °F 45% 30.01 in 10.0 mi South 12.7 mph 17.3 mph N/A   Scattered Clouds
11:15 AM 60.8 °F - 37.4 °F 42% 30.00 in 10.0 mi South 11.5 mph - N/A   Scattered Clouds
11:35 AM 60.8 °F - 37.4 °F 42% 29.99 in 10.0 mi SSW 9.2 mph - N/A   Scattered Clouds
11:55 AM 60.8 °F - 37.4 °F 42% 29.99 in 10.0 mi South 11.5 mph - N/A   Mostly Cloudy
12:15 PM 60.8 °F - 37.4 °F 42% 29.98 in 10.0 mi SSW 12.7 mph 16.1 mph N/A   Overcast
12:35 PM 60.8 °F - 37.4 °F 42% 29.97 in 10.0 mi South 9.2 mph - N/A   Overcast
12:55 PM 62.6 °F - 37.4 °F 39% 29.96 in 10.0 mi SSW 8.1 mph - N/A   Overcast
1:15 PM 62.6 °F - 37.4 °F 39% 29.96 in 10.0 mi SSW 8.1 mph - N/A   Overcast
1:35 PM 62.6 °F - 37.4 °F 39% 29.96 in 10.0 mi SSW 5.8 mph - N/A   Overcast
1:55 PM 62.6 °F - 37.4 °F 39% 29.95 in 10.0 mi SSW 5.8 mph - N/A   Overcast
2:15 PM 62.6 °F - 37.4 °F 39% 29.95 in 10.0 mi SW 3.5 mph - N/A   Overcast
2:35 PM 62.6 °F - 37.4 °F 39% 29.95 in 10.0 mi SSW 4.6 mph - N/A   Mostly Cloudy
2:55 PM 60.8 °F - 41.0 °F 48% 29.95 in 10.0 mi Calm Calm - N/A   Overcast
3:15 PM 60.8 °F - 42.8 °F 52% 29.96 in 10.0 mi West 8.1 mph - N/A Rain Light Rain
3:35 PM 57.2 °F - 46.4 °F 67% 29.97 in 10.0 mi NNW 9.2 mph - N/A   Light Drizzle
3:55 PM 53.6 °F - 44.6 °F 72% 29.97 in 10.0 mi NNW 12.7 mph 16.1 mph N/A   Overcast
4:15 PM 53.6 °F - 42.8 °F 67% 29.97 in 10.0 mi NNW 15.0 mph - N/A   Overcast
4:35 PM 51.8 °F - 42.8 °F 71% 29.97 in 10.0 mi NNW 10.4 mph 16.1 mph N/A   Overcast
4:55 PM 50.0 °F - 42.8 °F 76% 29.98 in 10.0 mi NNW 8.1 mph 16.1 mph N/A   Overcast
5:15 PM 50.0 °F - 42.8 °F 76% 29.97 in 7.0 mi NNW 11.5 mph 16.1 mph N/A   Overcast
5:35 PM 50.0 °F - 42.8 °F 76% 29.98 in 7.0 mi North 10.4 mph 17.3 mph N/A   Overcast
5:55 PM 48.2 °F - 42.8 °F 82% 29.97 in 7.0 mi NNW 12.7 mph 18.4 mph N/A   Overcast
6:15 PM 48.2 °F - 42.8 °F 82% 29.98 in 7.0 mi North 10.4 mph 18.4 mph N/A   Overcast
6:35 PM 48.2 °F - 42.8 °F 82% 29.98 in 10.0 mi North 12.7 mph 17.3 mph N/A   Overcast
6:55 PM 48.2 °F - 42.8 °F 82% 29.97 in 10.0 mi North 11.5 mph 20.7 mph N/A   Overcast
7:15 PM 48.2 °F - 42.8 °F 82% 29.96 in 10.0 mi NNE 10.4 mph - N/A   Overcast
7:35 PM 48.2 °F - 42.8 °F 82% 29.96 in 10.0 mi North 11.5 mph 16.1 mph N/A   Overcast
7:55 PM 48.2 °F - 41.0 °F 76% 29.95 in 10.0 mi North 12.7 mph 23.0 mph N/A   Overcast
8:15 PM 46.4 °F 41.5 °F 41.0 °F 81% 29.94 in 10.0 mi NNE 10.4 mph 18.4 mph N/A   Overcast
8:35 PM 46.4 °F 41.5 °F 41.0 °F 81% 29.95 in 10.0 mi North 10.4 mph 19.6 mph N/A   Light Drizzle
9:15 PM 44.6 °F 37.4 °F 39.2 °F 81% 29.98 in 10.0 mi North 16.1 mph 21.9 mph N/A Rain Light Rain
9:35 PM 44.6 °F 37.4 °F 37.4 °F 76% 29.98 in 10.0 mi North 16.1 mph 23.0 mph 0.01 in Rain Light Rain
9:55 PM 42.8 °F 36.2 °F 37.4 °F 81% 30.01 in 10.0 mi North 12.7 mph 24.2 mph 0.01 in   Overcast
10:15 PM 42.8 °F 33.8 °F 35.6 °F 76% 30.03 in 7.0 mi North 21.9 mph 29.9 mph 0.03 in Rain Heavy Rain
10:35 PM 41.0 °F 33.9 °F 35.6 °F 81% 30.03 in 3.0 mi North 12.7 mph 24.2 mph 0.11 in Rain Heavy Rain
10:55 PM 39.2 °F 33.0 °F 35.6 °F 87% 30.03 in 5.0 mi NNE 9.2 mph 19.6 mph 0.21 in Rain Rain
11:15 PM 39.2 °F 30.5 °F 35.6 °F 87% 30.01 in 10.0 mi NNE 16.1 mph 25.3 mph 0.09 in Rain Rain
11:35 PM 39.2 °F 32.0 °F 35.6 °F 87% 30.01 in 10.0 mi NNE 11.5 mph 19.6 mph 0.15 in Rain Rain
11:55 PM 39.2 °F 33.0 °F 35.6 °F 87% 30.00 in 10.0 mi NNE 9.2 mph 18.4 mph 0.24 in Rain Rain